Location: Unspecified
(54.1780°N, 0.0000°E)
Time: 03:23:08
(UTC+00:00)

Tiros 1 - Pass Details

Date: 19 June 2019
Orbit: 630 x 664 km, 48.4° (Epoch: 17 July)

Event Time Altitude Azimuth Distance (km) Brightness Sun altitude
Rises 01:29:22 0° 229° (SW) 2,933 - -10.1°
Reaches altitude 10° 01:31:56 10° 218° (SW) 2,021 - -10.0°
Exits shadow 01:32:30 13° 214° (SW) 1,834 8.8 -10.0°
Maximum altitude 01:35:54 29° 159° (SSE) 1,175 8.1 -9.8°
Drops below altitude 10° 01:39:53 10° 100° (E) 2,013 9.9 -9.5°
Sets 01:42:25 0° 89° (E) 2,921 10.9 -9.4°
